This is the latest recevied weather packets stored in our database for station/object DL4JCP-6. If no packets are shown the sender has not sent any weather packets the latest 10 day(s).
| Time | Temp. | Humidity | Pressure | Rain* | Wind** | Luminosity | Snow |
|---|---|---|---|---|---|---|---|
| 1777636995 | 18.33° C | 46% | 1029.9 hPa | 0 mm | - | - | - |
| 1777636923 | 18.33° C | 46% | 1029.9 hPa | 0 mm | - | - | - |
| 1777636623 | 17.78° C | 50% | 1029.9 hPa | 0 mm | - | - | - |
| 1777636322 | 17.78° C | 47% | 1029.7 hPa | 0 mm | - | - | - |
| 1777636095 | 18.33° C | 48% | 1029.9 hPa | 0 mm | - | - | - |
| 1777636022 | 18.33° C | 48% | 1029.9 hPa | 0 mm | - | - | - |
| 1777635722 | 17.78° C | 48% | 1029.8 hPa | 0 mm | - | - | - |
| 1777635422 | 17.78° C | 48% | 1029.8 hPa | 0 mm | - | - | - |
| 1777635195 | 18.33° C | 48% | 1030.1 hPa | 0 mm | - | - | - |
| 1777635122 | 18.33° C | 48% | 1030.1 hPa | 0 mm | - | - | - |
| 1777634822 | 17.78° C | 47% | 1030 hPa | 0 mm | - | - | - |
| 1777634522 | 17.78° C | 50% | 1030 hPa | 0 mm | - | - | - |
| 1777634298 | 18.33° C | 52% | 1030.2 hPa | 0 mm | - | - | - |
| 1777634222 | 18.33° C | 52% | 1030.2 hPa | 0 mm | - | - | - |
| 1777633922 | 18.33° C | 49% | 1030.3 hPa | 0 mm | - | - | - |
| 1777633621 | 18.33° C | 49% | 1030.3 hPa | 0 mm | - | - | - |
| 1777633398 | 17.78° C | 52% | 1030.3 hPa | 0 mm | - | - | - |
| 1777633321 | 17.78° C | 52% | 1030.3 hPa | 0 mm | - | - | - |
| 1777633021 | 17.78° C | 48% | 1030.4 hPa | 0 mm | - | - | - |
| 1777632721 | 17.22° C | 48% | 1030.3 hPa | 0 mm | - | - | - |
| 1777632498 | 17.22° C | 49% | 1030.3 hPa | 0 mm | - | - | - |
| 1777632421 | 17.22° C | 49% | 1030.3 hPa | 0 mm | - | - | - |
| 1777632131 | 17.22° C | 49% | 1030.4 hPa | 0 mm | - | - | - |
| 1777631822 | 17.22° C | 50% | 1030.4 hPa | 0 mm | - | - | - |
| 1777631598 | 17.22° C | 50% | 1030.5 hPa | 0 mm | - | - | - |
* Rain latest hour (hover to see other rain measurements)
** Current wind speed in m/s (hover to see current wind gust speed)